THOR ABLESTAR DEB, 147

Orbit data source: Space-Track

THOR ABLESTAR DEB, 147 is space debris in LEO originally from a launch on Thu, 29 Jun 1961 UTC launched from the Air Force Eastern Test Range (AFETR). Debris objects in space refer to the collection of defunct objects orbiting the Earth. Examples of debris include non-operational satellites, rocket bodies, and fragments generated from explosions, collisions, or faulty payload assembly.

Loading next visibility...
Identifier
147, 1961-015AH
Orbit
LEO
Country
Flag of USUS
Related business
Manufacturer
Unknown
Mission
Spacecraft
Bus & Motor
Unknown
Mass
Unknown
Launch date (UTC)
1961-06-29 (65 years ago)
Launch vehicle
Unknown
Launch site
Air Force Eastern Test Range (AFETR)
Object type
Payload
Rocket body
Debris
Shape & HBR
Unknown shape, 0.2 m
Radar Cross Section
Medium (>0.1 m² and <1 m²)

Expand to show TLE details & history
Last TLE update: 10 hours ago

TLE from 10 hours ago
0 THOR ABLESTAR DEB
1 00147U 61015AH  26111.79070639  .00000474  00000-0  23983-3 0  9990
2 00147  66.6154 147.2605 0043755 121.2182 239.3212 14.24184383326436
Epoch: 2026-04-21T18:58Z
TLE epoch observation values (Epoch: 2026-04-21T18:58:37.032Z)
Latitude
0.00003°
Longitude
12.74478°
Altitude
829.484 km
Speed
7.43 km/s
True Right ascension
09h 49m 02s
True Declination
0° 00' 00"
Sunlit
Object was in daylight at epoch
Visualization orbit readout
Latitude
Unknown
Longitude
Unknown
Altitude
Unknown
Speed
Unknown
Apparent Right ascension
Unknown
Apparent Declination
Unknown
Sunlit
N/A
Visualization observer readout
Local Sidereal Time
11:45:46
Azimuth
Unknown
Elevation
Unknown
Doppler factor
Unknown
Orbital elements
Apogee altitude
841.075 km
Perigee altitude
778.175 km
Semi-major axis
7,187.762 km
Eccentricity
0.00438
Inclination
66.6154°
RAAN
147.2605°
Arg. of periapsis
121.2182°
True anomaly
238.89118°
Mean anomaly
239.3212°
Eccentric anomaly
239.10607°
Mean motion
3.56166 °/min
Orbital period
101.08 mins
BSTAR
0.00023983

Documentation

Showing up to 5 results
|